Tracking 28570 objects as of 5-Mar-2024
HD Live streaming from Space Station
objects crossing your sky now

O3B FM17

Track O3B FM17 now!
10-day predictions
O3B FM17 is classified as:


NORAD ID: 44114
Int'l Code: 2019-020C
Perigee: 8,069.3 km
Apogee: 8,076.7 km
Inclination: 0.1 °
Period: 287.9 minutes
Semi major axis: 14444 km
RCS: Unknown
Launch date: April 4, 2019
Source: O3b Networks (O3B)
Launch site: FRENCH GUIANA (FRGUI)
Your satellite tracking list
Your tracking list is empty




NASA's NSSDC Master Catalog

Two Line Element Set (TLE):
1 44114U 19020C   24058.37927416 -.00000020  00000-0  00000-0 0  9997
2 44114   0.0556 343.2444 0002556 354.9031  21.8371  5.00116260 89469
Source of the keplerian elements: AFSPC